Time,TemperatureF,DewpointF,PressureIn,WindDirection,WindDirectionDegrees,WindSpeedMPH,WindSpeedGustMPH,Humidity,HourlyPrecipIn,Conditions,Clouds,dailyrainin,SolarRadiationWatts/m^2,SoftwareType,DateUTC
2013-04-11 00:00:00,43.7,42.1,29.69,ENE,59,5.3,9.2,94,0.00,CLR,,1.38,0.0,WeatherDisplay:10.37,2013-04-11 05:00:00,
2013-04-11 00:05:00,43.7,42.1,29.68,East,84,4.4,6.9,94,0.00,CLR,,1.38,0.0,WeatherDisplay:10.37,2013-04-11 05:05:00,
2013-04-11 00:10:00,43.7,42.1,29.68,ESE,114,6.8,12.0,94,0.00,CLR,,1.38,0.0,WeatherDisplay:10.37,2013-04-11 05:10:00,
2013-04-11 00:15:00,43.7,42.1,29.67,NE,42,5.8,8.1,94,0.00,CLR,,1.38,0.0,WeatherDisplay:10.37,2013-04-11 05:15:00,
2013-04-11 00:20:00,43.7,42.1,29.67,East,88,7.5,10.4,94,0.00,CLR,,1.38,0.0,WeatherDisplay:10.37,2013-04-11 05:20:00,
2013-04-11 00:25:00,43.7,42.1,29.67,NE,56,7.2,12.7,94,0.00,CLR,,1.38,0.0,WeatherDisplay:10.37,2013-04-11 05:25:00,
2013-04-11 00:30:00,43.8,42.2,29.66,ENE,65,7.0,11.5,94,0.00,CLR,,1.38,0.0,WeatherDisplay:10.37,2013-04-11 05:30:00,
2013-04-11 00:35:00,43.7,42.1,29.66,East,91,9.3,12.7,94,0.00,CLR,,1.38,0.0,WeatherDisplay:10.37,2013-04-11 05:35:00,
2013-04-11 00:40:00,43.7,42.1,29.66,ENE,63,4.8,10.4,94,0.00,CLR,,1.38,0.0,WeatherDisplay:10.37,2013-04-11 05:40:00,
2013-04-11 00:45:00,43.8,42.2,29.66,East,86,4.4,9.2,94,0.00,CLR,,1.38,0.0,WeatherDisplay:10.37,2013-04-11 05:45:00,
2013-04-11 00:50:00,43.7,42.1,29.66,ENE,66,5.1,11.5,94,0.00,CLR,,1.38,0.0,WeatherDisplay:10.37,2013-04-11 05:50:00,
2013-04-11 00:55:00,43.8,42.2,29.66,ENE,69,3.8,11.5,94,0.00,CLR,,1.38,0.0,WeatherDisplay:10.37,2013-04-11 05:55:00,
2013-04-11 01:00:00,43.8,42.2,29.66,NE,56,5.4,9.2,94,0.00,CLR,,1.38,0.0,WeatherDisplay:10.37,2013-04-11 06:00:00,
2013-04-11 01:05:00,43.8,42.2,29.67,ENE,63,5.6,8.1,94,0.00,CLR,,1.38,0.0,WeatherDisplay:10.37,2013-04-11 06:05:00,
2013-04-11 01:10:00,43.8,42.2,29.67,ENE,63,4.1,5.0,94,0.00,CLR,,1.38,0.0,WeatherDisplay:10.37,2013-04-11 06:10:00,
2013-04-11 01:15:00,43.9,42.3,29.67,ENE,61,2.5,3.5,94,0.00,CLR,,1.38,0.0,WeatherDisplay:10.37,2013-04-11 06:15:00,
2013-04-11 01:20:00,43.9,42.3,29.66,ENE,61,1.7,3.5,94,0.00,CLR,,1.38,0.0,WeatherDisplay:10.37,2013-04-11 06:20:00,
2013-04-11 01:25:00,43.9,42.3,29.66,ENE,62,2.6,3.5,94,0.00,CLR,,1.38,0.0,WeatherDisplay:10.37,2013-04-11 06:25:00,
2013-04-11 01:30:00,43.9,42.3,29.66,ENE,67,2.5,3.5,94,0.00,CLR,,1.38,0.0,WeatherDisplay:10.37,2013-04-11 06:30:00,
2013-04-11 01:35:00,43.8,42.2,29.66,ENE,67,3.6,5.0,94,0.00,CLR,,1.38,0.0,WeatherDisplay:10.37,2013-04-11 06:35:00,
2013-04-11 01:40:00,43.8,42.2,29.66,ENE,67,2.5,3.5,94,0.00,CLR,,1.38,0.0,WeatherDisplay:10.37,2013-04-11 06:40:00,
2013-04-11 01:45:00,43.8,42.2,29.66,ENE,68,3.1,5.0,94,0.00,CLR,,1.38,0.0,WeatherDisplay:10.37,2013-04-11 06:45:00,
2013-04-11 01:50:00,43.8,42.2,29.65,ENE,69,4.3,5.8,94,0.00,CLR,,1.38,0.0,WeatherDisplay:10.37,2013-04-11 06:50:00,
2013-04-11 01:55:00,43.8,42.2,29.66,ENE,69,3.1,5.8,94,0.00,CLR,,1.38,0.0,WeatherDisplay:10.37,2013-04-11 06:55:00,
2013-04-11 02:00:00,43.8,42.2,29.66,ENE,70,2.3,3.5,94,0.00,CLR,,1.38,0.0,WeatherDisplay:10.37,2013-04-11 07:00:00,
2013-04-11 02:05:00,43.8,42.2,29.65,ENE,69,3.5,5.8,94,0.00,CLR,,1.38,0.0,WeatherDisplay:10.37,2013-04-11 07:05:00,
2013-04-11 02:10:00,43.9,42.3,29.65,ENE,71,4.5,6.0,94,0.00,CLR,,1.38,0.0,WeatherDisplay:10.37,2013-04-11 07:10:00,
2013-04-11 02:16:00,43.9,42.3,29.65,ENE,71,3.2,4.0,94,0.00,CLR,,1.38,0.0,WeatherDisplay:10.37,2013-04-11 07:16:00,
2013-04-11 02:21:00,44.0,42.4,29.65,ENE,71,2.2,3.5,94,0.00,CLR,,1.38,0.0,WeatherDisplay:10.37,2013-04-11 07:21:00,
2013-04-11 02:26:00,44.0,42.4,29.65,ENE,71,2.9,4.0,94,0.00,CLR,,1.38,0.0,WeatherDisplay:10.37,2013-04-11 07:26:00,
2013-04-11 02:31:00,44.0,42.4,29.65,ENE,71,1.1,2.3,94,0.00,CLR,,1.38,0.0,WeatherDisplay:10.37,2013-04-11 07:31:00,
2013-04-11 02:36:00,44.1,42.5,29.65,ENE,71,0.0,0.0,94,0.00,CLR,,1.38,0.0,WeatherDisplay:10.37,2013-04-11 07:36:00,
2013-04-11 02:41:00,44.1,42.5,29.65,ENE,71,0.7,3.5,94,0.00,CLR,,1.38,0.0,WeatherDisplay:10.37,2013-04-11 07:41:00,
2013-04-11 02:46:00,44.2,42.6,29.64,ENE,71,2.3,4.0,94,0.00,CLR,,1.38,0.0,WeatherDisplay:10.37,2013-04-11 07:46:00,
2013-04-11 02:51:00,44.2,42.6,29.65,ENE,71,2.6,3.5,94,0.00,CLR,,1.38,0.0,WeatherDisplay:10.37,2013-04-11 07:51:00,
2013-04-11 02:56:00,44.3,43.0,29.65,ENE,71,2.8,4.0,95,0.00,CLR,,1.38,0.0,WeatherDisplay:10.37,2013-04-11 07:56:00,
2013-04-11 03:01:00,44.4,43.1,29.64,ENE,71,2.5,4.6,95,0.00,CLR,,1.38,0.0,WeatherDisplay:10.37,2013-04-11 08:01:00,
2013-04-11 03:06:00,44.5,43.2,29.63,ENE,71,3.5,5.0,95,0.00,CLR,,1.38,0.0,WeatherDisplay:10.37,2013-04-11 08:06:00,
2013-04-11 03:11:00,44.5,43.2,29.62,ESE,115,5.9,7.0,95,0.00,CLR,,1.38,0.0,WeatherDisplay:10.37,2013-04-11 08:11:00,
2013-04-11 03:16:00,44.6,43.3,29.62,ESE,105,3.4,4.6,95,0.00,CLR,,1.38,0.0,WeatherDisplay:10.37,2013-04-11 08:16:00,
2013-04-11 03:21:00,44.7,43.1,29.62,ESE,107,3.8,5.0,94,0.00,CLR,,1.38,0.0,WeatherDisplay:10.37,2013-04-11 08:21:00,
2013-04-11 03:26:00,44.7,43.1,29.62,ESE,107,3.1,5.0,94,0.00,CLR,,1.38,0.0,WeatherDisplay:10.37,2013-04-11 08:26:00,
2013-04-11 03:31:00,44.8,43.2,29.62,ESE,107,1.2,3.5,94,0.00,CLR,,1.38,0.0,WeatherDisplay:10.37,2013-04-11 08:31:00,
2013-04-11 03:36:00,44.9,43.3,29.62,ESE,107,2.0,3.5,94,0.00,CLR,,1.38,0.0,WeatherDisplay:10.37,2013-04-11 08:36:00,
2013-04-11 03:41:00,45.0,43.7,29.62,ESE,106,2.3,4.0,95,0.00,CLR,,1.38,0.0,WeatherDisplay:10.37,2013-04-11 08:41:00,
2013-04-11 03:46:00,45.0,43.7,29.61,ESE,107,2.2,3.5,95,0.01,RA,,1.39,0.0,WeatherDisplay:10.37,2013-04-11 08:46:00,
2013-04-11 03:52:00,45.1,43.8,29.61,ESE,107,2.2,3.5,95,0.01,RA,,1.39,0.0,WeatherDisplay:10.37,2013-04-11 08:52:00,
2013-04-11 03:57:00,45.3,44.0,29.62,ESE,107,2.7,3.5,95,0.01,,,1.39,0.0,WeatherDisplay:10.37,2013-04-11 08:57:00,
2013-04-11 04:02:00,45.4,44.1,29.62,ESE,107,2.2,3.5,95,0.01,CLR,,1.39,0.0,WeatherDisplay:10.37,2013-04-11 09:02:00,
2013-04-11 04:07:00,45.5,44.2,29.62,ESE,107,1.9,3.5,95,0.01,CLR,,1.39,0.0,WeatherDisplay:10.37,2013-04-11 09:07:00,
2013-04-11 04:12:00,45.6,44.3,29.62,ESE,107,2.0,3.5,95,0.01,CLR,,1.39,0.0,WeatherDisplay:10.37,2013-04-11 09:12:00,
2013-04-11 04:17:00,45.7,44.4,29.62,ESE,107,1.5,3.5,95,0.01,CLR,,1.39,0.0,WeatherDisplay:10.37,2013-04-11 09:17:00,
2013-04-11 04:22:00,45.9,44.5,29.62,ESE,107,2.3,3.5,95,0.01,CLR,,1.39,0.0,WeatherDisplay:10.37,2013-04-11 09:22:00,
2013-04-11 04:27:00,46.0,44.6,29.63,ESE,107,1.6,3.5,95,0.01,CLR,,1.39,0.0,WeatherDisplay:10.37,2013-04-11 09:27:00,
2013-04-11 04:32:00,46.2,44.8,29.63,ESE,107,2.2,4.0,95,0.01,CLR,,1.39,0.0,WeatherDisplay:10.37,2013-04-11 09:32:00,
2013-04-11 04:37:00,46.4,45.0,29.62,ESE,107,1.2,3.5,95,0.01,CLR,,1.39,0.0,WeatherDisplay:10.37,2013-04-11 09:37:00,
2013-04-11 04:42:00,46.5,45.1,29.62,ESE,107,1.5,4.6,95,0.01,CLR,,1.39,0.0,WeatherDisplay:10.37,2013-04-11 09:42:00,
2013-04-11 04:47:00,46.6,45.2,29.62,ESE,107,0.9,2.3,95,0.00,CLR,,1.39,0.0,WeatherDisplay:10.37,2013-04-11 09:47:00,
2013-04-11 04:52:00,46.8,45.4,29.61,ESE,107,1.6,3.5,95,0.00,CLR,,1.39,0.0,WeatherDisplay:10.37,2013-04-11 09:52:00,
2013-04-11 04:57:00,46.9,45.5,29.62,ESE,107,2.3,3.5,95,0.00,CLR,,1.39,0.0,WeatherDisplay:10.37,2013-04-11 09:57:00,
2013-04-11 05:02:00,47.0,45.6,29.62,ESE,107,2.0,3.5,95,0.00,CLR,,1.39,0.0,WeatherDisplay:10.37,2013-04-11 10:02:00,
2013-04-11 05:07:00,46.9,45.5,29.62,ESE,107,2.8,4.6,95,0.00,CLR,,1.39,0.0,WeatherDisplay:10.37,2013-04-11 10:07:00,
2013-04-11 05:12:00,46.8,45.4,29.61,ESE,107,0.0,0.0,95,0.00,CLR,,1.39,0.0,WeatherDisplay:10.37,2013-04-11 10:12:00,
2013-04-11 05:17:00,46.6,45.2,29.61,ESE,107,2.4,4.0,95,0.00,CLR,,1.39,0.0,WeatherDisplay:10.37,2013-04-11 10:17:00,
2013-04-11 05:22:00,46.5,45.1,29.61,ESE,107,1.0,3.5,95,0.00,CLR,,1.39,0.0,WeatherDisplay:10.37,2013-04-11 10:22:00,
2013-04-11 05:27:00,46.3,44.9,29.61,ESE,113,1.1,3.5,95,0.00,CLR,,1.39,0.0,WeatherDisplay:10.37,2013-04-11 10:27:00,
2013-04-11 05:32:00,46.2,44.8,29.61,ESE,113,2.0,3.5,95,0.00,CLR,,1.39,0.0,WeatherDisplay:10.37,2013-04-11 10:32:00,
2013-04-11 05:37:00,46.1,44.7,29.61,ESE,113,2.4,3.5,95,0.00,CLR,,1.39,0.0,WeatherDisplay:10.37,2013-04-11 10:37:00,
2013-04-11 05:42:00,46.1,44.7,29.61,ESE,113,1.4,3.5,95,0.00,CLR,,1.39,0.0,WeatherDisplay:10.37,2013-04-11 10:42:00,
2013-04-11 05:47:00,45.9,44.5,29.62,SSW,205,3.7,7.0,95,0.00,CLR,,1.39,0.0,WeatherDisplay:10.37,2013-04-11 10:47:00,
2013-04-11 05:52:00,45.8,44.4,29.62,West,268,5.2,8.1,95,0.00,CLR,,1.39,0.0,WeatherDisplay:10.37,2013-04-11 10:52:00,
2013-04-11 05:57:00,45.3,43.7,29.62,West,259,4.2,6.9,94,0.00,CLR,,1.39,0.0,WeatherDisplay:10.37,2013-04-11 10:57:00,
2013-04-11 06:02:00,45.1,43.8,29.60,West,259,2.1,3.5,95,0.00,OVC,,1.39,0.0,WeatherDisplay:10.37,2013-04-11 11:02:00,
2013-04-11 06:07:00,45.0,43.7,29.61,WSW,237,3.9,7.0,95,0.00,OVC,,1.39,0.0,WeatherDisplay:10.37,2013-04-11 11:07:00,
2013-04-11 06:12:00,44.8,43.5,29.61,West,268,4.5,6.9,95,0.00,OVC,,1.39,0.0,WeatherDisplay:10.37,2013-04-11 11:12:00,
2013-04-11 06:17:00,44.6,43.3,29.61,WSW,256,4.2,8.1,95,0.00,OVC,,1.39,0.0,WeatherDisplay:10.37,2013-04-11 11:17:00,
2013-04-11 06:22:00,44.4,43.1,29.62,West,268,3.6,6.0,95,0.00,OVC,,1.39,0.0,WeatherDisplay:10.37,2013-04-11 11:22:00,
2013-04-11 06:27:00,44.3,43.0,29.63,West,261,4.9,9.0,95,0.00,OVC,,1.39,0.0,WeatherDisplay:10.37,2013-04-11 11:27:00,
2013-04-11 06:32:00,44.3,43.0,29.63,West,277,5.3,9.0,95,0.00,OVC,,1.39,0.0,WeatherDisplay:10.37,2013-04-11 11:32:00,
2013-04-11 06:37:00,44.3,43.0,29.64,WSW,242,4.8,7.0,95,0.00,OVC,,1.39,0.0,WeatherDisplay:10.37,2013-04-11 11:37:00,
2013-04-11 06:42:00,44.2,42.9,29.65,SW,217,4.7,8.1,95,0.00,OVC,,1.39,0.0,WeatherDisplay:10.37,2013-04-11 11:42:00,
2013-04-11 06:48:00,44.2,42.9,29.64,SW,217,3.3,5.8,95,0.00,OVC,,1.39,0.0,WeatherDisplay:10.37,2013-04-11 11:48:00,
2013-04-11 06:53:00,44.2,42.9,29.65,SW,217,4.2,6.0,95,0.00,OVC,,1.39,0.0,WeatherDisplay:10.37,2013-04-11 11:53:00,
2013-04-11 06:58:00,44.2,42.9,29.65,SW,231,3.3,5.0,95,0.00,OVC,,1.39,0.0,WeatherDisplay:10.37,2013-04-11 11:58:00,
2013-04-11 07:03:00,44.2,42.9,29.65,SW,236,4.1,7.0,95,0.00,RA,,0.00,0.0,WeatherDisplay:10.37,2013-04-11 12:03:00,
2013-04-11 07:08:00,44.2,42.9,29.65,WSW,250,3.6,5.0,95,0.00,RA,,0.00,0.0,WeatherDisplay:10.37,2013-04-11 12:08:00,
2013-04-11 07:13:00,44.2,42.9,29.65,SW,235,4.5,5.8,95,0.00,OVC,,0.00,0.0,WeatherDisplay:10.37,2013-04-11 12:13:00,
2013-04-11 07:18:00,44.2,42.9,29.65,West,268,4.8,6.9,95,0.00,OVC,,0.00,0.0,WeatherDisplay:10.37,2013-04-11 12:18:00,
2013-04-11 07:23:00,44.2,42.9,29.64,West,273,4.0,6.0,95,0.00,OVC,,0.00,11.2,WeatherDisplay:10.37,2013-04-11 12:23:00,
2013-04-11 07:28:00,44.2,42.9,29.64,West,270,4.5,7.0,95,0.00,OVC,,0.00,17.4,WeatherDisplay:10.37,2013-04-11 12:28:00,
2013-04-11 07:33:00,44.2,42.9,29.64,WSW,250,6.0,10.4,95,0.00,OVC,,0.00,23.6,WeatherDisplay:10.37,2013-04-11 12:33:00,
2013-04-11 07:38:00,44.1,42.8,29.66,West,261,4.0,5.8,95,0.00,OVC,,0.00,57.0,WeatherDisplay:10.37,2013-04-11 12:38:00,
2013-04-11 07:43:00,44.1,42.8,29.65,West,269,6.6,12.0,95,0.00,OVC,,0.00,63.2,WeatherDisplay:10.37,2013-04-11 12:43:00,
2013-04-11 07:48:00,44.0,42.7,29.65,West,261,5.1,10.4,95,0.00,OVC,,0.00,60.8,WeatherDisplay:10.37,2013-04-11 12:48:00,
2013-04-11 07:53:00,43.9,42.6,29.65,SW,232,8.1,12.0,95,0.00,OVC,,0.00,37.2,WeatherDisplay:10.37,2013-04-11 12:53:00,
2013-04-11 07:58:00,43.8,42.5,29.65,WSW,249,7.9,15.0,95,0.00,OVC,,0.00,45.9,WeatherDisplay:10.37,2013-04-11 12:58:00,
2013-04-11 08:03:00,43.8,42.5,29.63,WSW,255,6.4,10.4,95,0.00,OVC,,0.00,45.9,WeatherDisplay:10.37,2013-04-11 13:03:00,
2013-04-11 08:08:00,43.8,42.5,29.65,WSW,253,4.9,7.0,95,0.00,OVC,,0.00,54.6,WeatherDisplay:10.37,2013-04-11 13:08:00,
2013-04-11 08:13:00,44.0,42.7,29.65,WSW,241,8.2,11.5,95,0.00,OVC,,0.00,78.1,WeatherDisplay:10.37,2013-04-11 13:13:00,
2013-04-11 08:18:00,44.0,42.7,29.65,West,273,9.2,12.0,95,0.00,OVC,,0.00,106.6,WeatherDisplay:10.37,2013-04-11 13:18:00,
2013-04-11 08:23:00,44.0,42.7,29.64,WSW,254,8.2,11.5,95,0.00,OVC,,0.00,85.6,WeatherDisplay:10.37,2013-04-11 13:23:00,
2013-04-11 08:28:00,44.0,42.7,29.64,West,260,5.4,6.9,95,0.00,OVC,,0.00,85.6,WeatherDisplay:10.37,2013-04-11 13:28:00,
2013-04-11 08:33:00,44.0,42.7,29.64,West,273,5.3,10.4,95,0.00,OVC,,0.00,89.3,WeatherDisplay:10.37,2013-04-11 13:33:00,
2013-04-11 08:38:00,44.0,42.7,29.63,West,264,5.4,7.0,95,0.00,OVC,,0.00,98.0,WeatherDisplay:10.37,2013-04-11 13:38:00,
2013-04-11 08:43:00,44.1,42.8,29.64,WSW,248,4.9,6.0,95,0.00,OVC,,0.00,102.9,WeatherDisplay:10.37,2013-04-11 13:43:00,
2013-04-11 08:48:00,44.2,42.9,29.63,WSW,239,4.0,6.0,95,0.00,OVC,,0.00,100.4,WeatherDisplay:10.37,2013-04-11 13:48:00,
2013-04-11 08:53:00,44.2,42.9,29.63,WSW,238,4.1,8.1,95,0.00,OVC,,0.00,121.5,WeatherDisplay:10.37,2013-04-11 13:53:00,
2013-04-11 08:58:00,44.2,42.6,29.64,WSW,237,5.4,9.2,94,0.00,OVC,,0.00,130.2,WeatherDisplay:10.37,2013-04-11 13:58:00,
2013-04-11 09:04:00,44.2,42.6,29.64,WSW,253,5.4,10.4,94,0.00,OVC,,0.00,112.8,WeatherDisplay:10.37,2013-04-11 14:04:00,
2013-04-11 09:09:00,44.3,42.7,29.64,WSW,246,3.8,9.2,94,0.00,OVC,,0.00,141.4,WeatherDisplay:10.37,2013-04-11 14:09:00,
2013-04-11 09:14:00,44.3,42.7,29.64,WSW,237,6.3,11.5,94,0.00,OVC,,0.00,166.2,WeatherDisplay:10.37,2013-04-11 14:14:00,
2013-04-11 09:19:00,44.3,42.7,29.64,WSW,243,4.6,11.0,94,0.00,OVC,,0.00,207.1,WeatherDisplay:10.37,2013-04-11 14:19:00,
2013-04-11 09:24:00,44.4,42.8,29.65,West,268,6.9,11.5,94,0.00,OVC,,0.00,150.0,WeatherDisplay:10.37,2013-04-11 14:24:00,
2013-04-11 09:29:00,44.5,42.9,29.65,WSW,257,4.0,5.0,94,0.00,OVC,,0.00,158.7,WeatherDisplay:10.37,2013-04-11 14:29:00,
2013-04-11 09:34:00,44.8,43.2,29.64,WSW,254,5.6,9.2,94,0.00,OVC,,0.00,235.6,WeatherDisplay:10.37,2013-04-11 14:34:00,
2013-04-11 09:39:00,45.0,43.4,29.65,West,261,5.6,9.2,94,0.00,OVC,,0.00,261.6,WeatherDisplay:10.37,2013-04-11 14:39:00,
2013-04-11 09:44:00,45.1,43.5,29.64,WSW,251,8.6,13.0,94,0.00,BKN,,0.00,302.6,WeatherDisplay:10.37,2013-04-11 14:44:00,
2013-04-11 09:49:00,45.2,43.6,29.63,West,264,7.9,11.5,94,0.00,BKN,,0.00,184.8,WeatherDisplay:10.37,2013-04-11 14:49:00,
2013-04-11 09:54:00,45.4,43.8,29.63,West,263,8.3,16.1,94,0.00,OVC,,0.00,255.4,WeatherDisplay:10.37,2013-04-11 14:54:00,
2013-04-11 09:59:00,45.4,43.5,29.63,WSW,239,4.9,9.2,93,0.00,OVC,,0.00,292.6,WeatherDisplay:10.37,2013-04-11 14:59:00,
2013-04-11 10:04:00,45.6,43.7,29.62,WSW,246,6.6,11.5,93,0.00,BKN,,0.00,416.6,WeatherDisplay:10.37,2013-04-11 15:04:00,
2013-04-11 10:09:00,45.9,44.0,29.62,West,260,6.4,10.4,93,0.00,SCT,,0.00,527.0,WeatherDisplay:10.37,2013-04-11 15:09:00,
2013-04-11 10:14:00,46.4,44.5,29.63,WSW,238,8.8,12.7,93,0.00,FEW,,0.00,427.8,WeatherDisplay:10.37,2013-04-11 15:14:00,
2013-04-11 10:19:00,46.5,44.3,29.62,West,272,8.0,13.8,92,0.00,FEW,,0.00,448.9,WeatherDisplay:10.37,2013-04-11 15:19:00,
2013-04-11 10:24:00,46.7,44.2,29.62,West,261,8.9,11.0,91,0.00,SCT,,0.00,445.2,WeatherDisplay:10.37,2013-04-11 15:24:00,
2013-04-11 10:29:00,47.0,44.5,29.63,WSW,252,7.1,11.5,91,0.00,SCT,,0.00,425.3,WeatherDisplay:10.37,2013-04-11 15:29:00,
2013-04-11 10:34:00,47.4,44.9,29.63,SW,231,6.6,11.5,91,0.00,SCT,,0.00,368.3,WeatherDisplay:10.37,2013-04-11 15:34:00,
2013-04-11 10:39:00,47.5,44.7,29.63,WSW,237,6.4,11.5,90,0.00,SCT,,0.00,373.2,WeatherDisplay:10.37,2013-04-11 15:39:00,
2013-04-11 10:44:00,47.7,44.3,29.63,SSW,210,6.3,11.5,88,0.00,BKN,,0.00,311.2,WeatherDisplay:10.37,2013-04-11 15:44:00,
2013-04-11 10:49:00,47.6,43.9,29.63,WSW,256,9.4,16.1,87,0.00,BKN,,0.00,226.9,WeatherDisplay:10.37,2013-04-11 15:49:00,
2013-04-11 10:54:00,47.6,43.6,29.63,West,280,7.8,11.5,86,0.00,OVC,,0.00,241.8,WeatherDisplay:10.37,2013-04-11 15:54:00,
2013-04-11 10:59:00,47.5,43.2,29.64,WSW,249,6.8,11.0,85,0.00,OVC,,0.00,246.8,WeatherDisplay:10.37,2013-04-11 15:59:00,
2013-04-11 11:04:00,47.6,43.0,29.64,WSW,255,9.5,11.5,84,0.00,OVC,,0.00,184.8,WeatherDisplay:10.37,2013-04-11 16:04:00,
2013-04-11 11:09:00,47.5,42.9,29.63,SW,227,7.1,11.5,84,0.00,OVC,,0.00,189.7,WeatherDisplay:10.37,2013-04-11 16:09:00,
2013-04-11 11:14:00,47.4,42.5,29.63,West,260,6.4,11.5,83,0.00,OVC,,0.00,204.6,WeatherDisplay:10.37,2013-04-11 16:14:00,
2013-04-11 11:19:00,47.4,42.5,29.63,West,263,6.9,11.5,83,0.00,OVC,,0.00,235.6,WeatherDisplay:10.37,2013-04-11 16:19:00,
2013-04-11 11:24:00,47.4,42.5,29.62,WSW,248,7.4,12.7,83,0.00,OVC,,0.00,298.8,WeatherDisplay:10.37,2013-04-11 16:24:00,
2013-04-11 11:29:00,47.5,42.6,29.62,WSW,251,7.2,10.4,83,0.00,OVC,,0.00,359.6,WeatherDisplay:10.37,2013-04-11 16:29:00,
2013-04-11 11:34:00,47.7,42.5,29.62,West,273,8.2,12.7,82,0.00,BKN,,0.00,331.1,WeatherDisplay:10.37,2013-04-11 16:34:00,
2013-04-11 11:39:00,47.7,42.5,29.63,WSW,245,9.6,13.8,82,0.00,BKN,,0.00,370.8,WeatherDisplay:10.37,2013-04-11 16:39:00,
2013-04-11 11:44:00,47.7,42.5,29.63,SW,215,7.6,12.0,82,0.00,BKN,,0.00,270.3,WeatherDisplay:10.37,2013-04-11 16:44:00,
2013-04-11 11:49:00,47.8,42.6,29.63,WNW,292,8.2,12.7,82,0.00,OVC,,0.00,339.8,WeatherDisplay:10.37,2013-04-11 16:49:00,
2013-04-11 11:54:00,47.9,42.3,29.62,West,277,5.0,12.7,81,0.00,OVC,,0.00,448.9,WeatherDisplay:10.37,2013-04-11 16:54:00,
2013-04-11 11:59:00,48.1,42.9,29.61,WSW,255,5.9,9.2,82,0.00,BKN,,0.00,501.0,WeatherDisplay:10.37,2013-04-11 16:59:00,
2013-04-11 12:04:00,48.2,43.3,29.62,SW,235,9.4,13.0,83,0.00,SCT,,0.00,466.2,WeatherDisplay:10.37,2013-04-11 17:04:00,
2013-04-11 12:09:00,48.1,43.2,29.63,SW,234,8.9,12.7,83,0.00,SCT,,0.00,616.3,WeatherDisplay:10.37,2013-04-11 17:09:00,
2013-04-11 12:14:00,48.2,43.6,29.63,West,267,5.1,10.4,84,0.00,SCT,,0.00,307.5,WeatherDisplay:10.37,2013-04-11 17:14:00,
2013-04-11 12:19:00,47.9,43.3,29.63,SW,221,6.5,12.7,84,0.00,SCT,,0.00,259.2,WeatherDisplay:10.37,2013-04-11 17:19:00,
2013-04-11 12:24:00,47.6,43.6,29.62,WSW,245,3.5,10.4,86,0.00,OVC,,0.00,324.9,WeatherDisplay:10.37,2013-04-11 17:24:00,
2013-04-11 12:29:00,47.5,43.5,29.62,WSW,252,4.3,10.4,86,0.00,OVC,,0.00,405.5,WeatherDisplay:10.37,2013-04-11 17:29:00,
2013-04-11 12:34:00,47.5,43.5,29.62,SW,218,8.2,11.0,86,0.00,BKN,,0.00,270.3,WeatherDisplay:10.37,2013-04-11 17:34:00,
2013-04-11 12:39:00,47.5,43.5,29.62,SW,215,10.5,12.7,86,0.00,OVC,,0.00,157.5,WeatherDisplay:10.37,2013-04-11 17:39:00,
2013-04-11 12:44:00,47.1,42.8,29.62,West,275,6.3,10.4,85,0.00,OVC,,0.00,141.4,WeatherDisplay:10.37,2013-04-11 17:44:00,
2013-04-11 12:49:00,46.9,42.3,29.62,WSW,237,8.1,11.5,84,0.00,OVC,,0.00,202.1,WeatherDisplay:10.37,2013-04-11 17:49:00,
2013-04-11 12:54:00,46.9,42.3,29.62,WSW,241,6.5,11.5,84,0.00,OVC,,0.00,290.2,WeatherDisplay:10.37,2013-04-11 17:54:00,
2013-04-11 12:59:00,47.2,42.9,29.63,SW,227,6.0,8.0,85,0.00,OVC,,0.00,316.2,WeatherDisplay:10.37,2013-04-11 17:59:00,
2013-04-11 13:04:00,47.2,42.3,29.62,SW,236,10.5,13.8,83,0.00,OVC,,0.00,259.2,WeatherDisplay:10.37,2013-04-11 18:04:00,
2013-04-11 13:09:00,46.9,42.0,29.62,West,265,8.8,16.1,83,0.00,OVC,,0.00,267.8,WeatherDisplay:10.37,2013-04-11 18:09:00,
2013-04-11 13:14:00,46.9,42.0,29.62,SW,224,9.4,12.7,83,0.00,OVC,,0.00,244.3,WeatherDisplay:10.37,2013-04-11 18:14:00,
2013-04-11 13:19:00,46.9,42.0,29.63,SSW,204,10.2,19.6,83,0.00,OVC,,0.00,348.4,WeatherDisplay:10.37,2013-04-11 18:19:00,
2013-04-11 13:24:00,46.8,41.9,29.63,SW,225,5.7,9.2,83,0.00,OVC,,0.00,346.0,WeatherDisplay:10.37,2013-04-11 18:24:00,
2013-04-11 13:30:00,47.0,42.1,29.63,SW,217,15.6,21.0,83,0.00,BKN,,0.00,337.3,WeatherDisplay:10.37,2013-04-11 18:30:00,
2013-04-11 13:35:00,46.7,41.8,29.63,SW,229,6.7,11.5,83,0.00,BKN,,0.00,427.8,WeatherDisplay:10.37,2013-04-11 18:35:00,
2013-04-11 13:40:00,46.7,41.8,29.63,SW,222,7.3,14.0,83,0.00,BKN,,0.00,250.5,WeatherDisplay:10.37,2013-04-11 18:40:00,
2013-04-11 13:45:00,46.5,41.6,29.63,West,272,8.6,17.3,83,0.00,BKN,,0.00,169.9,WeatherDisplay:10.37,2013-04-11 18:45:00,
2013-04-11 13:50:00,46.3,41.4,29.63,SW,222,7.9,12.7,83,0.00,OVC,,0.00,187.2,WeatherDisplay:10.37,2013-04-11 18:50:00,
2013-04-11 13:55:00,45.5,40.3,29.63,SW,218,12.8,19.6,82,0.00,OVC,,0.00,212.0,WeatherDisplay:10.37,2013-04-11 18:55:00,
2013-04-11 14:00:00,45.3,40.4,29.63,SW,234,9.7,17.0,83,0.00,OVC,,0.00,224.4,WeatherDisplay:10.37,2013-04-11 19:00:00,
2013-04-11 14:05:00,45.0,40.1,29.63,WSW,239,8.5,12.7,83,0.00,OVC,,0.00,253.0,WeatherDisplay:10.37,2013-04-11 19:05:00,
2013-04-11 14:10:00,45.2,40.7,29.63,SW,220,6.3,10.4,84,0.00,OVC,,0.00,264.1,WeatherDisplay:10.37,2013-04-11 19:10:00,
2013-04-11 14:15:00,45.2,40.3,29.63,SW,224,9.2,16.1,83,0.00,OVC,,0.00,235.6,WeatherDisplay:10.37,2013-04-11 19:15:00,
2013-04-11 14:20:00,45.1,39.9,29.64,WSW,249,10.8,15.0,82,0.00,OVC,,0.00,167.4,WeatherDisplay:10.37,2013-04-11 19:20:00,
2013-04-11 14:25:00,44.9,39.7,29.64,SW,233,13.3,20.7,82,0.00,OVC,,0.00,169.9,WeatherDisplay:10.37,2013-04-11 19:25:00,
2013-04-11 14:30:00,44.5,39.3,29.64,WSW,250,14.3,21.0,82,0.00,OVC,,0.00,178.6,WeatherDisplay:10.37,2013-04-11 19:30:00,
2013-04-11 14:35:00,44.0,38.9,29.64,WSW,241,9.5,16.1,82,0.00,OVC,,0.00,115.3,WeatherDisplay:10.37,2013-04-11 19:35:00,
2013-04-11 14:40:00,43.8,38.7,29.64,SW,226,9.9,19.6,82,0.00,OVC,,0.00,146.3,WeatherDisplay:10.37,2013-04-11 19:40:00,
2013-04-11 14:45:00,43.8,38.7,29.63,WSW,244,6.0,10.4,82,0.00,OVC,,0.00,176.1,WeatherDisplay:10.37,2013-04-11 19:45:00,
2013-04-11 14:50:00,43.9,38.8,29.63,WSW,246,6.3,9.2,82,0.00,OVC,,0.00,137.6,WeatherDisplay:10.37,2013-04-11 19:50:00,
2013-04-11 14:55:00,43.9,38.8,29.64,SW,235,9.8,17.3,82,0.00,OVC,,0.00,155.0,WeatherDisplay:10.37,2013-04-11 19:55:00,
2013-04-11 15:00:00,44.0,38.9,29.63,WSW,238,6.5,12.0,82,0.00,OVC,,0.00,167.4,WeatherDisplay:10.37,2013-04-11 20:00:00,
2013-04-11 15:05:00,44.2,39.1,29.63,South,183,7.5,14.0,82,0.00,OVC,,0.00,296.4,WeatherDisplay:10.37,2013-04-11 20:05:00,
2013-04-11 15:10:00,44.4,38.6,29.64,SW,222,9.3,17.3,80,0.00,BKN,,0.00,229.4,WeatherDisplay:10.37,2013-04-11 20:10:00,
2013-04-11 15:15:00,44.6,38.8,29.63,SW,227,7.3,14.0,80,0.00,BKN,,0.00,178.6,WeatherDisplay:10.37,2013-04-11 20:15:00,
2013-04-11 15:20:00,44.6,38.5,29.63,SW,217,8.8,15.0,79,0.00,OVC,,0.00,184.8,WeatherDisplay:10.37,2013-04-11 20:20:00,
2013-04-11 15:25:00,44.2,38.1,29.64,South,191,14.2,24.2,79,0.00,OVC,,0.00,233.1,WeatherDisplay:10.37,2013-04-11 20:25:00,
2013-04-11 15:30:00,43.6,37.8,29.64,West,272,14.1,26.5,80,0.00,OVC,,0.00,137.6,WeatherDisplay:10.37,2013-04-11 20:30:00,
2013-04-11 15:35:00,43.2,37.8,29.64,SW,234,9.5,17.0,81,0.00,OVC,,0.00,141.4,WeatherDisplay:10.37,2013-04-11 20:35:00,
2013-04-11 15:40:00,43.1,38.0,29.64,West,265,9.0,15.0,82,0.00,OVC,,0.00,215.8,WeatherDisplay:10.37,2013-04-11 20:40:00,
2013-04-11 15:45:00,43.0,37.9,29.64,SSW,202,9.2,15.0,82,0.00,BKN,,0.00,226.9,WeatherDisplay:10.37,2013-04-11 20:45:00,
2013-04-11 15:50:00,43.0,37.6,29.65,SW,232,5.8,14.0,81,0.00,BKN,,0.00,178.6,WeatherDisplay:10.37,2013-04-11 20:50:00,
2013-04-11 15:55:00,43.1,37.7,29.64,SSW,206,8.5,13.0,81,0.00,BKN,,0.00,135.2,WeatherDisplay:10.37,2013-04-11 20:55:00,
2013-04-11 16:00:00,42.7,37.3,29.65,SW,227,8.0,11.5,81,0.00,OVC,,0.00,124.0,WeatherDisplay:10.37,2013-04-11 21:00:00,
2013-04-11 16:05:00,42.2,37.1,29.65,SW,236,11.3,17.3,82,0.00,OVC,,0.00,117.8,WeatherDisplay:10.37,2013-04-11 21:05:00,
2013-04-11 16:10:00,41.8,36.7,29.65,West,266,9.0,18.4,82,0.00,OVC,,0.00,129.0,WeatherDisplay:10.37,2013-04-11 21:10:00,
2013-04-11 16:15:00,41.7,36.6,29.65,West,267,6.5,11.5,82,0.00,OVC,,0.00,112.8,WeatherDisplay:10.37,2013-04-11 21:15:00,
2013-04-11 16:20:00,41.6,36.5,29.64,West,277,11.8,19.6,82,0.00,OVC,,0.00,83.1,WeatherDisplay:10.37,2013-04-11 21:20:00,
2013-04-11 16:25:00,41.3,36.2,29.65,West,259,9.9,22.0,82,0.00,OVC,,0.00,71.9,WeatherDisplay:10.37,2013-04-11 21:25:00,
2013-04-11 16:30:00,41.2,36.1,29.66,WSW,246,7.5,11.5,82,0.00,OVC,,0.00,67.0,WeatherDisplay:10.37,2013-04-11 21:30:00,
2013-04-11 16:35:00,40.9,36.1,29.65,SW,223,8.4,15.0,83,0.00,OVC,,0.00,104.2,WeatherDisplay:10.37,2013-04-11 21:35:00,
2013-04-11 16:40:00,40.7,36.2,29.65,WSW,248,6.3,12.0,84,0.00,OVC,,0.00,172.4,WeatherDisplay:10.37,2013-04-11 21:40:00,
2013-04-11 16:45:00,40.7,36.2,29.64,SW,233,7.8,16.0,84,0.00,SCT,,0.00,218.2,WeatherDisplay:10.37,2013-04-11 21:45:00,
2013-04-11 16:50:00,40.8,36.3,29.64,West,261,6.0,9.2,84,0.00,FEW,,0.00,224.4,WeatherDisplay:10.37,2013-04-11 21:50:00,
2013-04-11 16:55:00,41.0,36.2,29.64,SW,227,8.6,12.7,83,0.00,CLR,,0.00,204.6,WeatherDisplay:10.37,2013-04-11 21:55:00,
2013-04-11 17:00:00,41.1,36.0,29.64,WSW,244,8.7,15.0,82,0.00,CLR,,0.00,224.4,WeatherDisplay:10.37,2013-04-11 22:00:00,
2013-04-11 17:05:00,41.3,36.2,29.64,WSW,251,8.2,13.0,82,0.00,CLR,,0.00,204.6,WeatherDisplay:10.37,2013-04-11 22:05:00,
2013-04-11 17:10:00,41.5,36.1,29.64,WSW,249,6.7,16.1,81,0.00,CLR,,0.00,161.2,WeatherDisplay:10.37,2013-04-11 22:10:00,
2013-04-11 17:15:00,41.6,36.2,29.64,West,264,5.3,12.7,81,0.00,FEW,,0.00,100.4,WeatherDisplay:10.37,2013-04-11 22:15:00,
2013-04-11 17:20:00,41.7,36.0,29.64,WSW,253,9.5,12.7,80,0.00,SCT,,0.00,98.0,WeatherDisplay:10.37,2013-04-11 22:20:00,
2013-04-11 17:25:00,41.7,36.0,29.64,West,265,9.4,15.0,80,0.00,SCT,,0.00,100.4,WeatherDisplay:10.37,2013-04-11 22:25:00,
2013-04-11 17:30:00,41.5,35.5,29.64,West,275,11.7,16.1,79,0.00,SCT,,0.00,71.9,WeatherDisplay:10.37,2013-04-11 22:30:00,
2013-04-11 17:35:00,41.3,35.3,29.64,SW,233,7.9,13.8,79,0.00,BKN,,0.00,58.3,WeatherDisplay:10.37,2013-04-11 22:35:00,
2013-04-11 17:40:00,41.1,35.1,29.64,West,265,11.8,16.1,79,0.00,BKN,,0.00,89.3,WeatherDisplay:10.37,2013-04-11 22:40:00,
2013-04-11 17:45:00,40.9,35.2,29.64,West,271,9.9,15.0,80,0.00,SCT,,0.00,71.9,WeatherDisplay:10.37,2013-04-11 22:45:00,
2013-04-11 17:50:00,40.8,35.1,29.64,WSW,248,9.3,15.0,80,0.00,FEW,,0.00,83.1,WeatherDisplay:10.37,2013-04-11 22:50:00,
2013-04-11 17:55:00,40.6,34.9,29.64,West,263,8.5,13.0,80,0.00,CLR,,0.00,106.6,WeatherDisplay:10.37,2013-04-11 22:55:00,
2013-04-11 18:00:00,40.7,35.0,29.64,WSW,253,11.9,18.0,80,0.00,CLR,,0.00,126.5,WeatherDisplay:10.37,2013-04-11 23:00:00,
2013-04-11 18:05:00,40.7,35.0,29.63,West,261,11.0,17.3,80,0.00,CLR,,0.00,176.1,WeatherDisplay:10.37,2013-04-11 23:05:00,
2013-04-11 18:10:00,40.8,34.8,29.64,WSW,249,12.9,22.0,79,0.00,CLR,,0.00,130.2,WeatherDisplay:10.37,2013-04-11 23:10:00,
2013-04-11 18:15:00,40.7,34.4,29.64,West,262,8.5,13.8,78,0.00,CLR,,0.00,65.7,WeatherDisplay:10.37,2013-04-11 23:15:00,
2013-04-11 18:20:00,40.7,34.4,29.64,West,261,6.7,13.8,78,0.00,CLR,,0.00,67.0,WeatherDisplay:10.37,2013-04-11 23:20:00,
2013-04-11 18:25:00,40.6,34.3,29.65,WSW,242,9.4,13.8,78,0.00,CLR,,0.00,34.7,WeatherDisplay:10.37,2013-04-11 23:25:00,
2013-04-11 18:30:00,40.6,34.6,29.65,WSW,237,9.8,14.0,79,0.00,CLR,,0.00,28.5,WeatherDisplay:10.37,2013-04-11 23:30:00,
2013-04-11 18:35:00,40.5,34.5,29.66,SW,231,8.0,12.0,79,0.00,CLR,,0.00,22.3,WeatherDisplay:10.37,2013-04-11 23:35:00,
2013-04-11 18:40:00,40.4,34.4,29.66,WNW,284,10.9,16.1,79,0.00,CLR,,0.00,26.0,WeatherDisplay:10.37,2013-04-11 23:40:00,
2013-04-11 18:45:00,40.2,33.9,29.66,West,275,11.4,19.0,78,0.00,OVC,,0.00,28.5,WeatherDisplay:10.37,2013-04-11 23:45:00,
2013-04-11 18:50:00,40.1,33.5,29.66,West,266,8.1,12.7,77,0.00,OVC,,0.00,31.0,WeatherDisplay:10.37,2013-04-11 23:50:00,
2013-04-11 18:55:00,40.1,33.5,29.66,SSW,205,6.5,11.5,77,0.00,OVC,,0.00,32.2,WeatherDisplay:10.37,2013-04-11 23:55:00,
2013-04-11 19:00:00,40.1,33.1,29.66,WNW,290,10.8,17.3,76,0.00,OVC,,0.00,22.3,WeatherDisplay:10.37,2013-04-12 00:00:00,
2013-04-11 19:05:00,40.1,33.1,29.66,WSW,246,6.2,11.5,76,0.00,OVC,,0.00,19.8,WeatherDisplay:10.37,2013-04-12 00:05:00,
2013-04-11 19:11:00,40.1,33.5,29.66,West,262,8.0,13.8,77,0.00,OVC,,0.00,19.8,WeatherDisplay:10.37,2013-04-12 00:11:00,
2013-04-11 19:16:00,40.0,33.4,29.66,SW,236,11.0,16.0,77,0.00,OVC,,0.00,14.9,WeatherDisplay:10.37,2013-04-12 00:16:00,
2013-04-11 19:21:00,39.9,32.9,29.66,WSW,245,6.7,16.1,76,0.00,OVC,,0.00,13.6,WeatherDisplay:10.37,2013-04-12 00:21:00,
2013-04-11 19:26:00,39.8,32.8,29.66,WSW,245,8.6,12.0,76,0.00,OVC,,0.00,8.7,WeatherDisplay:10.37,2013-04-12 00:26:00,
2013-04-11 19:31:00,39.6,32.7,29.66,SW,236,11.4,20.0,76,0.00,OVC,,0.00,8.7,WeatherDisplay:10.37,2013-04-12 00:31:00,
2013-04-11 19:36:00,39.5,32.9,29.66,West,259,9.2,14.0,77,0.00,OVC,,0.00,6.2,WeatherDisplay:10.37,2013-04-12 00:36:00,
2013-04-11 19:41:00,39.3,32.7,29.65,SW,233,10.8,18.0,77,0.00,OVC,,0.00,0.0,WeatherDisplay:10.37,2013-04-12 00:41:00,
2013-04-11 19:46:00,39.2,32.9,29.65,WSW,257,8.9,13.0,78,0.00,OVC,,0.00,0.0,WeatherDisplay:10.37,2013-04-12 00:46:00,
2013-04-11 19:51:00,39.1,32.8,29.65,WSW,238,8.8,12.0,78,0.00,OVC,,0.00,0.0,WeatherDisplay:10.37,2013-04-12 00:51:00,
2013-04-11 19:56:00,38.9,32.6,29.65,West,263,12.7,19.6,78,0.00,OVC,,0.00,0.0,WeatherDisplay:10.37,2013-04-12 00:56:00,
2013-04-11 20:01:00,38.9,32.3,29.65,SW,221,5.5,16.1,77,0.00,OVC,,0.00,0.0,WeatherDisplay:10.37,2013-04-12 01:01:00,
2013-04-11 20:06:00,38.8,32.2,29.66,West,261,11.7,18.4,77,0.00,CLR,,0.00,0.0,WeatherDisplay:10.37,2013-04-12 01:06:00,
2013-04-11 20:11:00,38.7,32.1,29.66,West,261,9.0,11.5,77,0.00,CLR,,0.00,0.0,WeatherDisplay:10.37,2013-04-12 01:11:00,
2013-04-11 20:16:00,38.6,32.0,29.66,West,279,7.2,11.5,77,0.00,CLR,,0.00,0.0,WeatherDisplay:10.37,2013-04-12 01:16:00,
2013-04-11 20:21:00,38.5,31.9,29.66,WSW,247,6.7,11.5,77,0.00,CLR,,0.00,0.0,WeatherDisplay:10.37,2013-04-12 01:21:00,
2013-04-11 20:26:00,38.4,31.8,29.66,SW,226,11.1,19.6,77,0.00,CLR,,0.00,0.0,WeatherDisplay:10.37,2013-04-12 01:26:00,
2013-04-11 20:31:00,38.3,31.7,29.66,WSW,246,7.3,13.8,77,0.00,CLR,,0.00,0.0,WeatherDisplay:10.37,2013-04-12 01:31:00,
2013-04-11 20:36:00,38.3,31.7,29.66,WSW,256,9.8,16.0,77,0.00,CLR,,0.00,0.0,WeatherDisplay:10.37,2013-04-12 01:36:00,
2013-04-11 20:41:00,38.2,31.6,29.66,West,261,8.9,15.0,77,0.00,CLR,,0.00,0.0,WeatherDisplay:10.37,2013-04-12 01:41:00,
2013-04-11 20:46:00,38.2,31.6,29.66,West,266,8.1,12.7,77,0.00,CLR,,0.00,0.0,WeatherDisplay:10.37,2013-04-12 01:46:00,
2013-04-11 20:51:00,38.1,31.5,29.67,West,261,8.3,13.0,77,0.00,CLR,,0.00,0.0,WeatherDisplay:10.37,2013-04-12 01:51:00,
2013-04-11 20:56:00,38.0,31.1,29.67,WSW,240,8.2,15.0,76,0.00,CLR,,0.00,0.0,WeatherDisplay:10.37,2013-04-12 01:56:00,
2013-04-11 21:01:00,38.0,31.1,29.67,WSW,258,9.5,16.1,76,0.00,CLR,,0.00,0.0,WeatherDisplay:10.37,2013-04-12 02:01:00,
2013-04-11 21:06:00,38.0,31.1,29.66,WSW,245,8.4,12.7,76,0.00,CLR,,0.00,0.0,WeatherDisplay:10.37,2013-04-12 02:06:00,
2013-04-11 21:11:00,38.0,31.1,29.66,SW,227,7.9,11.5,76,0.00,CLR,,0.00,0.0,WeatherDisplay:10.37,2013-04-12 02:11:00,
2013-04-11 21:16:00,37.9,31.0,29.67,West,274,8.7,13.0,76,0.00,CLR,,0.00,0.0,WeatherDisplay:10.37,2013-04-12 02:16:00,
2013-04-11 21:21:00,37.8,30.6,29.67,West,278,9.3,13.0,75,0.00,CLR,,0.00,0.0,WeatherDisplay:10.37,2013-04-12 02:21:00,
2013-04-11 21:26:00,37.8,30.6,29.66,West,267,7.1,11.5,75,0.00,CLR,,0.00,0.0,WeatherDisplay:10.37,2013-04-12 02:26:00,
2013-04-11 21:31:00,37.7,30.2,29.67,West,269,8.0,19.6,74,0.00,CLR,,0.00,0.0,WeatherDisplay:10.37,2013-04-12 02:31:00,
2013-04-11 21:36:00,37.8,30.2,29.67,West,259,8.0,16.0,74,0.00,CLR,,0.00,0.0,WeatherDisplay:10.37,2013-04-12 02:36:00,
2013-04-11 21:42:00,37.7,30.2,29.67,West,261,7.0,14.0,74,0.00,CLR,,0.00,0.0,WeatherDisplay:10.37,2013-04-12 02:42:00,
2013-04-11 21:47:00,37.8,30.2,29.67,West,259,8.0,14.0,74,0.00,CLR,,0.00,0.0,WeatherDisplay:10.37,2013-04-12 02:47:00,
2013-04-11 21:52:00,37.7,30.2,29.67,WSW,250,8.7,12.7,74,0.00,CLR,,0.00,0.0,WeatherDisplay:10.37,2013-04-12 02:52:00,
2013-04-11 21:57:00,37.7,30.2,29.67,West,263,6.1,11.5,74,0.00,CLR,,0.00,0.0,WeatherDisplay:10.37,2013-04-12 02:57:00,
2013-04-11 22:02:00,37.7,30.2,29.67,WSW,256,8.5,16.0,74,0.00,CLR,,0.00,0.0,WeatherDisplay:10.37,2013-04-12 03:02:00,
2013-04-11 22:07:00,37.7,30.2,29.67,WNW,294,10.5,13.8,74,0.00,CLR,,0.00,0.0,WeatherDisplay:10.37,2013-04-12 03:07:00,
2013-04-11 22:12:00,37.6,30.1,29.67,WSW,246,6.3,15.0,74,0.00,CLR,,0.00,0.0,WeatherDisplay:10.37,2013-04-12 03:12:00,
2013-04-11 22:17:00,37.5,30.0,29.67,West,264,10.9,15.0,74,0.00,CLR,,0.00,0.0,WeatherDisplay:10.37,2013-04-12 03:17:00,
2013-04-11 22:22:00,37.5,30.0,29.67,WSW,254,8.4,11.5,74,0.00,CLR,,0.00,0.0,WeatherDisplay:10.37,2013-04-12 03:22:00,
2013-04-11 22:27:00,37.5,30.0,29.67,West,267,7.7,10.4,74,0.00,CLR,,0.00,0.0,WeatherDisplay:10.37,2013-04-12 03:27:00,
2013-04-11 22:32:00,37.5,30.3,29.67,West,270,8.7,11.5,75,0.00,CLR,,0.00,0.0,WeatherDisplay:10.37,2013-04-12 03:32:00,
2013-04-11 22:37:00,37.5,30.3,29.67,WSW,256,6.9,15.0,75,0.00,CLR,,0.00,0.0,WeatherDisplay:10.37,2013-04-12 03:37:00,
2013-04-11 22:42:00,37.5,30.3,29.67,SW,228,5.9,10.4,75,0.00,CLR,,0.00,0.0,WeatherDisplay:10.37,2013-04-12 03:42:00,
2013-04-11 22:47:00,37.5,30.3,29.67,SW,234,4.5,7.0,75,0.00,CLR,,0.00,0.0,WeatherDisplay:10.37,2013-04-12 03:47:00,
2013-04-11 22:52:00,37.4,30.5,29.67,SW,231,4.3,7.0,76,0.00,CLR,,0.00,0.0,WeatherDisplay:10.37,2013-04-12 03:52:00,
2013-04-11 22:57:00,37.4,30.5,29.67,SW,219,6.9,11.0,76,0.00,CLR,,0.00,0.0,WeatherDisplay:10.37,2013-04-12 03:57:00,
2013-04-11 23:00:00,37.3,30.4,29.67,WSW,254,4.5,9.2,76,0.00,CLR,,0.00,0.0,WeatherDisplay:10.37,2013-04-12 04:00:00,
2013-04-11 23:02:00,37.3,30.4,29.67,WSW,244,6.0,12.0,76,0.00,CLR,,0.00,0.0,WeatherDisplay:10.37,2013-04-12 04:02:00,
2013-04-11 23:07:00,37.3,30.7,29.67,SW,232,6.5,10.4,77,0.00,CLR,,0.00,0.0,WeatherDisplay:10.37,2013-04-12 04:07:00,
2013-04-11 23:12:00,37.3,30.7,29.67,West,260,5.7,8.1,77,0.00,CLR,,0.00,0.0,WeatherDisplay:10.37,2013-04-12 04:12:00,
2013-04-11 23:17:00,37.2,30.7,29.67,WSW,240,4.5,10.0,77,0.00,CLR,,0.00,0.0,WeatherDisplay:10.37,2013-04-12 04:17:00,
2013-04-11 23:22:00,37.2,30.7,29.67,West,277,7.8,11.5,77,0.00,CLR,,0.00,0.0,WeatherDisplay:10.37,2013-04-12 04:22:00,
2013-04-11 23:27:00,37.3,30.7,29.67,West,265,3.3,7.0,77,0.00,CLR,,0.00,0.0,WeatherDisplay:10.37,2013-04-12 04:27:00,
2013-04-11 23:32:00,37.3,31.1,29.67,WSW,242,3.8,6.9,78,0.00,CLR,,0.00,0.0,WeatherDisplay:10.37,2013-04-12 04:32:00,
2013-04-11 23:37:00,37.2,31.0,29.67,West,270,4.5,6.9,78,0.00,CLR,,0.00,0.0,WeatherDisplay:10.37,2013-04-12 04:37:00,
2013-04-11 23:42:00,37.2,31.3,29.67,SW,232,4.0,10.4,79,0.00,CLR,,0.00,0.0,WeatherDisplay:10.37,2013-04-12 04:42:00,
2013-04-11 23:47:00,37.2,31.3,29.67,West,268,3.8,7.0,79,0.00,CLR,,0.00,0.0,WeatherDisplay:10.37,2013-04-12 04:47:00,
2013-04-11 23:52:00,37.1,31.2,29.67,West,268,4.4,6.9,79,0.00,CLR,,0.00,0.0,WeatherDisplay:10.37,2013-04-12 04:52:00,
2013-04-11 23:57:00,37.1,31.2,29.67,WSW,239,4.8,9.2,79,0.00,CLR,,0.00,0.0,WeatherDisplay:10.37,2013-04-12 04:57:00,